Flag for Australia Weather past 2 weeks in Lord Howe Island, Lord Howe Island, Australia

Now
60 °F

Passing clouds.


Feels Like: 57 °F
Forecast: 62 / 65 °F
Wind: 16 mph from Southwest

Location: Lord Howe Island

Current Time: Oct 2, 2014 at 4:14:51 AM

Latest Report: Oct 2, 2014 at 3:00 AM


Visibility: N/A

Pressure: 30.03 "Hg

Humidity: 57%

Dew point: 44 °F

Location of Lord Howe IslandLocation

Historic Weather in Lord Howe Island — Graph

°F

Lord Howe Island temperature yesterday

Maximum temperature yesterday: 69 °F (at 12:00 PM)
Minimum temperature yesterday: 61 °F (at 10:30 PM)
Average temperature yesterday: 66 °F

Past Weeks' High & Low Weather Summary

 TemperatureHumidityPressure
High70 °F (Sep 25, 1:30 PM)92% (Sep 26, 6:00 AM)30.42 "Hg (Sep 26, 6:00 AM)
Low51 °F (Sep 30, 3:00 AM)46% (Sep 28, 12:00 PM)29.78 "Hg (Sep 26, 3:00 PM)
Average63 °F65%30.10 "Hg
* Reported Sep 17 3:00 AM — Oct 2 3:00 AM, Lord Howe Island, Weather by CustomWeather, © 2014

Note: Actual official high and low records may vary slightly from our data, if they occured in-between our weather recording intervals... More about our weather records

Advertising

Lord Howe Island weather history for previous 24 hours

 ConditionsComfort  
Time TempWeatherWind HumidityBarometerVisibility
3:00 AM
Oct 2
60 °FPassing clouds.16 mph57%30.03 "HgN/A
1:30 AM60 °FRefreshingly cool.17 mph53%30.03 "HgN/A
12:00 AM61 °FPassing clouds.17 mph57%30.03 "HgN/A
10:30 PM
Oct 1
61 °FRefreshingly cool.20 mph60%30.03 "HgN/A
9:00 PM62 °FPassing clouds.21 mph58%30.02 "HgN/A
7:30 PM63 °FMild.17 mph59%29.99 "HgN/A
6:00 PM64 °FOvercast.20 mph68%29.95 "HgN/A
4:30 PM65 °FMild.22 mph80%29.90 "HgN/A
3:00 PM69 °FOvercast.15 mph78%29.88 "Hg11 mi
1:30 PM69 °FMild.15 mph73%29.92 "HgN/A
12:00 PM69 °FOvercast.15 mph70%29.95 "Hg11 mi
10:30 AM69 °FMild.14 mph70%30.00 "HgN/A
9:00 AM68 °FPartly sunny.12 mph64%30.00 "Hg17 mi
7:30 AM67 °FMild.8 mph67%30.01 "HgN/A
6:00 AM65 °FPartly sunny.13 mph66%30.02 "Hg19 mi
4:30 AM65 °FMild.9 mph69%30.00 "HgN/A
Weather by CustomWeather, © 2014

See weather overviewHow to use our weather pages